Flag for Norway Weather past 2 weeks in Ørsta, Norway

Now
50 °F

Passing clouds.


Feels Like: 50 °F
Forecast: 51 / 61 °F
Wind: 2 mph from North

Location: Orsta-Volda / Hovden

Current Time: Aug 22, 2014 at 12:06:55 AM

Latest Report: Aug 21, 2014 at 10:50 PM


Visibility: N/A

Pressure: 29.71 "Hg

Humidity: 94%

Dew point: 48 °F

Location of ØrstaLocation

Historic Weather in Ørsta — Graph

°F

Ørsta temperature yesterday

Maximum temperature yesterday: 55 °F (at 11:50 AM)
Minimum temperature yesterday: 48 °F (at 5:50 AM)
Average temperature yesterday: 53 °F

Past Weeks' High & Low Weather Summary

 TemperatureHumidityPressure
High77 °F (Aug 9, 2:20 PM)100% (Aug 7, 7:50 AM)29.98 "Hg (Aug 7, 7:50 AM)
Low48 °F (Aug 21, 5:50 AM)26% (Aug 9, 2:50 PM)29.21 "Hg (Aug 18, 5:50 AM)
Average60 °F74%29.55 "Hg
* Reported Aug 6 10:50 PM — Aug 21 10:50 PM, Ørsta, Weather by CustomWeather, © 2014

Note: Actual official high and low records may vary slightly from our data, if they occured in-between our weather recording intervals... More about our weather records

Advertising

Ørsta weather history for previous 24 hours

 ConditionsComfort  
Time TempWeatherWind HumidityBarometerVisibility
10:50 PM
Aug 21
50 °FPassing clouds.2 mph94%29.71 "HgN/A
9:50 PM52 °FPartly sunny.1 mph94%29.71 "HgN/A
8:50 PM54 °FPartly sunny.2 mph88%29.71 "HgN/A
7:50 PM54 °FBroken clouds.3 mph88%29.71 "HgN/A
6:50 PM55 °FScattered showers. Broken clouds.3 mph77%29.71 "HgN/A
5:50 PM55 °FScattered showers. Broken clouds.6 mph82%29.68 "HgN/A
4:50 PM55 °FScattered showers. Broken clouds.5 mph77%29.68 "HgN/A
3:50 PM55 °FScattered showers. Broken clouds.6 mph77%29.68 "HgN/A
3:20 PM55 °FScattered showers. Broken clouds.8 mph77%29.68 "HgN/A
2:50 PM55 °FScattered showers. Broken clouds.6 mph77%29.68 "HgN/A
1:50 PM55 °FScattered showers. Broken clouds.3 mph77%29.68 "HgN/A
12:50 PM55 °FBroken clouds.1 mph77%29.68 "HgN/A
11:50 AM55 °FScattered showers. Partly sunny.3 mph77%29.68 "HgN/A
10:50 AM54 °FScattered showers. Broken clouds.2 mph82%29.65 "HgN/A
9:50 AM54 °FBroken clouds.1 mph82%29.65 "HgN/A
8:50 AM52 °FPartly sunny.3 mph88%29.65 "HgN/A
7:50 AM50 °FBroken clouds.2 mph100%29.62 "HgN/A
6:50 AM50 °FPassing clouds.1 mph94%29.62 "HgN/A
5:50 AM48 °FPartly cloudy.No wind100%29.62 "HgN/A
Weather by CustomWeather, © 2014

See weather overviewHow to use our weather pages